| time (UTC) | temp C | wind direction | speed KPH | gust KPH | rain 1hr cm | rain 24hr cm | rain mn cm | humidity % | barometer mb |
| 20260906185825 | 32 | 136 | 9.7 | 17.7 | 0.00 | 0.00 | 0.00 | 84 | 1012.3 |
| 20260906185327 | 32 | 144 | 8.0 | 14.5 | 0.00 | 0.00 | 0.00 | 84 | 1012.4 |
| 20260906184833 | 32 | 145 | 6.4 | 14.5 | 0.00 | 0.00 | 0.00 | 85 | 1012.4 |
| 20260906184318 | 32 | 190 | 4.8 | 14.5 | 0.00 | 0.00 | 0.00 | 85 | 1012.4 |
| 20260906183823 | 31 | 209 | 8.0 | 14.5 | 0.00 | 0.00 | 0.00 | 85 | 1012.5 |
| 20260906183329 | 31 | 180 | 6.4 | 11.3 | 0.00 | 0.00 | 0.00 | 85 | 1012.5 |
| 20260906182836 | 31 | 143 | 4.8 | 14.5 | 0.00 | 0.00 | 0.00 | 85 | 1012.7 |
| 20260906182321 | 31 | 152 | 6.4 | 14.5 | 0.00 | 0.00 | 0.00 | 86 | 1012.7 |
| 20260906181822 | 31 | 112 | 6.4 | 11.3 | 0.00 | 0.00 | 0.00 | 86 | 1012.8 |
| 20260906181324 | 31 | 208 | 4.8 | 9.7 | 0.00 | 0.00 | 0.00 | 87 | 1012.9 |
| 20260906180829 | 31 | 187 | 4.8 | 9.7 | 0.00 | 0.00 | 0.00 | 87 | 1012.9 |
| 20260906180332 | 31 | 120 | 4.8 | 11.3 | 0.00 | 0.00 | 0.00 | 87 | 1013.0 |
| 20260906175819 | 31 | 94 | 6.4 | 11.3 | 0.00 | 0.00 | 0.00 | 87 | 1013.1 |
| 20260906175348 | 31 | 131 | 8.0 | 11.3 | 0.00 | 0.00 | 0.00 | 87 | 1013.2 |
| 20260906174849 | 30 | 165 | 3.2 | 9.7 | 0.00 | 0.00 | 0.00 | 87 | 1013.3 |
| 20260906174334 | 30 | 186 | 3.2 | 16.1 | 0.00 | 0.00 | 0.00 | 87 | 1013.3 |
| 20260906173840 | 30 | 153 | 6.4 | 20.9 | 0.00 | 0.00 | 0.00 | 88 | 1013.5 |
| 20260906173322 | 30 | 149 | 3.2 | 11.3 | 0.00 | 0.00 | 0.00 | 88 | 1013.6 |
| 20260906172835 | 30 | 134 | 6.4 | 11.3 | 0.00 | 0.00 | 0.00 | 88 | 1013.6 |
| 20260906172339 | 30 | 138 | 1.6 | 3.2 | 0.00 | 0.00 | 0.00 | 88 | 1013.7 |
| 20260906171845 | 30 | 138 | 1.6 | 6.4 | 0.00 | 0.00 | 0.00 | 88 | 1013.8 |
| 20260906171329 | 30 | 138 | 3.2 | 6.4 | 0.00 | 0.00 | 0.00 | 88 | 1013.8 |
| 20260906170818 | 30 | 137 | 1.6 | 4.8 | 0.00 | 0.00 | 0.00 | 88 | 1014.0 |
| 20260906170318 | 30 | 137 | 0.0 | 3.2 | 0.00 | 0.00 | 0.00 | 88 | 1014.0 |
| 20260906165825 | 30 | 137 | 1.6 | 4.8 | 0.00 | 0.00 | 0.00 | 89 | 1014.1 |
| 20260906165328 | 30 | 137 | 3.2 | 6.4 | 0.00 | 0.00 | 0.00 | 89 | 1014.1 |
| 20260906164836 | 30 | 137 | 1.6 | 6.4 | 0.00 | 0.00 | 0.00 | 89 | 1014.0 |
| 20260906164323 | 30 | 137 | 3.2 | 4.8 | 0.00 | 0.00 | 0.00 | 89 | 1014.0 |
| 20260906163830 | 30 | 137 | 1.6 | 6.4 | 0.00 | 0.00 | 0.00 | 89 | 1014.1 |
| 20260906163336 | 30 | 137 | 1.6 | 11.3 | 0.00 | 0.00 | 0.00 | 89 | 1014.1 |
| 20260906162820 | 30 | 140 | 4.8 | 11.3 | 0.00 | 0.00 | 0.00 | 89 | 1014.1 |
| 20260906162334 | 30 | 88 | 4.8 | 9.7 | 0.00 | 0.00 | 0.00 | 89 | 1014.1 |
| 20260906161839 | 30 | 148 | 4.8 | 11.3 | 0.00 | 0.00 | 0.00 | 89 | 1014.2 |
| 20260906161317 | 30 | 119 | 3.2 | 11.3 | 0.00 | 0.00 | 0.00 | 90 | 1014.1 |
| 20260906160828 | 30 | 134 | 4.8 | 11.3 | 0.00 | 0.00 | 0.00 | 90 | 1014.2 |
| 20260906160334 | 30 | 229 | 3.2 | 8.0 | 0.00 | 0.00 | 0.00 | 90 | 1014.3 |
| 20260906155820 | 29 | 228 | 3.2 | 11.3 | 0.00 | 0.00 | 0.00 | 90 | 1014.2 |
| 20260906155326 | 29 | 138 | 3.2 | 11.3 | 0.00 | 0.00 | 0.00 | 90 | 1014.2 |
| 20260906154826 | 29 | 71 | 4.8 | 12.9 | 0.00 | 0.00 | 0.00 | 90 | 1014.1 |
| 20260906154328 | 29 | 114 | 6.4 | 12.9 | 0.00 | 0.00 | 0.00 | 90 | 1014.1 |
| 20260906153828 | 29 | 44 | 1.6 | 12.9 | 0.00 | 0.00 | 0.00 | 90 | 1014.1 |
| 20260906153343 | 28 | 109 | 6.4 | 12.9 | 0.00 | 0.00 | 0.00 | 90 | 1014.1 |
| 20260906152845 | 28 | 64 | 4.8 | 8.0 | 0.00 | 0.00 | 0.00 | 90 | 1014.0 |
| 20260906152325 | 28 | 140 | 4.8 | 6.4 | 0.00 | 0.00 | 0.00 | 90 | 1014.1 |
| 20260906151827 | 28 | 178 | 1.6 | 9.7 | 0.00 | 0.00 | 0.00 | 90 | 1014.0 |
| 20260906151329 | 28 | 174 | 3.2 | 6.4 | 0.00 | 0.00 | 0.00 | 90 | 1014.0 |
| 20260906150841 | 28 | 197 | 3.2 | 8.0 | 0.00 | 0.00 | 0.00 | 90 | 1014.0 |
| 20260906150326 | 27 | 207 | 4.8 | 8.0 | 0.00 | 0.00 | 0.00 | 90 | 1014.1 |
| 20260906145829 | 27 | 163 | 3.2 | 11.3 | 0.00 | 0.00 | 0.00 | 89 | 1014.2 |
| 20260906145333 | 27 | 165 | 4.8 | 11.3 | 0.00 | 0.00 | 0.00 | 89 | 1014.1 |
| 20260906144818 | 27 | 107 | 3.2 | 6.4 | 0.00 | 0.00 | 0.00 | 89 | 1014.1 |
| 20260906144341 | 27 | 107 | 1.6 | 6.4 | 0.00 | 0.00 | 0.00 | 89 | 1014.1 |
| 20260906143853 | 27 | 107 | 3.2 | 4.8 | 0.00 | 0.00 | 0.00 | 89 | 1014.1 |
| 20260906143318 | 27 | 107 | 1.6 | 6.4 | 0.00 | 0.00 | 0.00 | 89 | 1014.1 |
| 20260906142837 | 26 | 107 | 3.2 | 6.4 | 0.00 | 0.00 | 0.00 | 89 | 1014.1 |
| 20260906142346 | 26 | 107 | 4.8 | 6.4 | 0.00 | 0.00 | 0.00 | 89 | 1014.1 |
| 20260906141828 | 26 | 119 | 3.2 | 9.7 | 0.00 | 0.00 | 0.00 | 89 | 1014.0 |
| 20260906141333 | 26 | 124 | 6.4 | 9.7 | 0.00 | 0.00 | 0.00 | 88 | 1014.1 |
| 20260906140835 | 26 | 122 | 3.2 | 9.7 | 0.00 | 0.00 | 0.00 | 88 | 1014.1 |
| 20260906140319 | 26 | 120 | 1.6 | 9.7 | 0.00 | 0.00 | 0.00 | 88 | 1014.1 |
| 20260906135826 | 25 | 118 | 6.4 | 9.7 | 0.00 | 0.00 | 0.00 | 88 | 1014.0 |
| 20260906135356 | 25 | 110 | 4.8 | 9.7 | 0.00 | 0.00 | 0.00 | 88 | 1014.0 |
| 20260906134841 | 25 | 113 | 4.8 | 9.7 | 0.00 | 0.00 | 0.00 | 88 | 1014.0 |
| 20260906134327 | 25 | 104 | 3.2 | 6.4 | 0.00 | 0.00 | 0.00 | 88 | 1014.0 |
| 20260906133832 | 25 | 105 | 3.2 | 4.8 | 0.00 | 0.00 | 0.00 | 88 | 1014.0 |
| 20260906133338 | 25 | 105 | 1.6 | 3.2 | 0.00 | 0.00 | 0.00 | 88 | 1014.0 |
| 20260906132823 | 25 | 105 | 3.2 | 3.2 | 0.00 | 0.00 | 0.00 | 88 | 1014.0 |
| 20260906132327 | 25 | 105 | 0.0 | 3.2 | 0.00 | 0.00 | 0.00 | 88 | 1014.1 |
| 20260906131830 | 25 | 105 | 1.6 | 3.2 | 0.00 | 0.00 | 0.00 | 88 | 1014.0 |
| 20260906131336 | 25 | 105 | 0.0 | 1.6 | 0.00 | 0.00 | 0.00 | 88 | 1013.9 |
| 20260906130822 | 24 | 105 | 0.0 | 3.2 | 0.00 | 0.00 | 0.00 | 88 | 1013.8 |
| 20260906130326 | 24 | 105 | 1.6 | 3.2 | 0.00 | 0.00 | 0.00 | 87 | 1013.7 |
| 20260906125829 | 24 | 105 | 0.0 | 4.8 | 0.00 | 0.00 | 0.00 | 87 | 1013.6 |
| 20260906125334 | 24 | 105 | 1.6 | 4.8 | 0.00 | 0.00 | 0.00 | 87 | 1013.5 |
| 20260906124836 | 24 | 105 | 3.2 | 4.8 | 0.00 | 0.00 | 0.00 | 87 | 1013.5 |
| 20260906124318 | 24 | 105 | 3.2 | 4.8 | 0.00 | 0.00 | 0.00 | 87 | 1013.4 |
| 20260906123830 | 24 | 105 | 0.0 | 3.2 | 0.00 | 0.00 | 0.00 | 87 | 1013.4 |
| 20260906123335 | 24 | 105 | 0.0 | 3.2 | 0.00 | 0.00 | 0.00 | 87 | 1013.3 |
| 20260906122842 | 24 | 105 | 1.6 | 3.2 | 0.00 | 0.00 | 0.00 | 87 | 1013.3 |
| 20260906122325 | 24 | 105 | 1.6 | 3.2 | 0.00 | 0.00 | 0.00 | 87 | 1013.2 |
| 20260906121858 | 24 | 105 | 1.6 | 3.2 | 0.00 | 0.00 | 0.00 | 87 | 1013.1 |
| 20260906121345 | 24 | 105 | 1.6 | 3.2 | 0.00 | 0.00 | 0.00 | 87 | 1013.1 |
| 20260906120830 | 24 | 105 | 1.6 | 4.8 | 0.00 | 0.00 | 0.00 | 87 | 1013.1 |
| 20260906120335 | 24 | 105 | 3.2 | 4.8 | 0.00 | 0.00 | 0.00 | 87 | 1013.1 |
| 20260906115841 | 24 | 105 | 3.2 | 4.8 | 0.00 | 0.00 | 0.00 | 87 | 1013.0 |
| 20260906041329 | 26 | 157 | 1.6 | 4.8 | 0.00 | 0.00 | 0.00 | 79 | 1012.5 |
| 20260906040838 | 26 | 157 | 0.0 | 0.0 | 0.00 | 0.00 | 0.00 | 79 | 1012.5 |
| 20260906040323 | 26 | 157 | 0.0 | 0.0 | 0.00 | 0.00 | 0.00 | 79 | 1012.5 |
| 20260906035836 | 26 | 157 | 0.0 | 0.0 | 0.00 | 0.00 | 0.00 | 79 | 1012.4 |
| 20260906035343 | 26 | 157 | 0.0 | 0.0 | 0.00 | 0.00 | 0.00 | 79 | 1012.3 |
| 20260906034903 | 26 | 157 | 0.0 | 0.0 | 0.00 | 0.00 | 0.00 | 79 | 1012.4 |
| 20260906034346 | 26 | 157 | 0.0 | 4.8 | 0.00 | 0.00 | 0.00 | 79 | 1012.4 |
| 20260906033820 | 26 | 157 | 1.6 | 4.8 | 0.00 | 0.00 | 0.00 | 78 | 1012.4 |
| 20260906033335 | 26 | 157 | 1.6 | 4.8 | 0.00 | 0.00 | 0.00 | 78 | 1012.4 |
| 20260906032838 | 26 | 155 | 1.6 | 8.0 | 0.00 | 0.00 | 0.00 | 78 | 1012.3 |
| 20260906032343 | 26 | 150 | 3.2 | 8.0 | 0.00 | 0.00 | 0.00 | 78 | 1012.4 |
| 20260906031847 | 26 | 122 | 4.8 | 11.3 | 0.00 | 0.00 | 0.00 | 78 | 1012.6 |
| 20260906031332 | 26 | 93 | 4.8 | 11.3 | 0.00 | 0.00 | 0.00 | 78 | 1012.7 |
| 20260906030837 | 26 | 107 | 3.2 | 11.3 | 0.00 | 0.00 | 0.00 | 78 | 1012.7 |
| 20260906030320 | 26 | 98 | 6.4 | 11.3 | 0.00 | 0.00 | 0.00 | 78 | 1012.7 |
| 20260906025833 | 26 | 109 | 4.8 | 9.7 | 0.00 | 0.00 | 0.00 | 77 | 1012.6 |
| 20260906025338 | 26 | 122 | 4.8 | 9.7 | 0.00 | 0.00 | 0.00 | 77 | 1012.7 |
| 20260906024843 | 26 | 113 | 3.2 | 6.4 | 0.00 | 0.00 | 0.00 | 77 | 1012.5 |
| 20260906024327 | 26 | 115 | 3.2 | 6.4 | 0.00 | 0.00 | 0.00 | 77 | 1012.5 |
| 20260906023832 | 26 | 116 | 4.8 | 9.7 | 0.00 | 0.00 | 0.00 | 77 | 1012.4 |
| 20260906023348 | 26 | 101 | 4.8 | 11.3 | 0.00 | 0.00 | 0.00 | 77 | 1012.3 |
| 20260906022831 | 26 | 96 | 4.8 | 11.3 | 0.00 | 0.00 | 0.00 | 77 | 1012.2 |
| 20260906022336 | 26 | 113 | 6.4 | 11.3 | 0.00 | 0.00 | 0.00 | 77 | 1012.1 |
| 20260906021822 | 26 | 123 | 4.8 | 9.7 | 0.00 | 0.00 | 0.00 | 76 | 1012.0 |
| 20260906021324 | 26 | 123 | 4.8 | 11.3 | 0.00 | 0.00 | 0.00 | 76 | 1011.9 |
| 20260906020828 | 26 | 108 | 8.0 | 11.3 | 0.00 | 0.00 | 0.00 | 76 | 1011.8 |
| 20260906020336 | 26 | 128 | 6.4 | 11.3 | 0.00 | 0.00 | 0.00 | 76 | 1011.7 |
| 20260906015824 | 26 | 90 | 4.8 | 12.9 | 0.00 | 0.00 | 0.00 | 76 | 1011.6 |
| 20260906015350 | 27 | 94 | 8.0 | 12.9 | 0.00 | 0.00 | 0.00 | 76 | 1011.7 |
| 20260906014841 | 27 | 78 | 4.8 | 11.3 | 0.00 | 0.00 | 0.00 | 76 | 1011.8 |
| 20260906014326 | 27 | 100 | 4.8 | 11.3 | 0.00 | 0.00 | 0.00 | 75 | 1011.6 |
| 20260906013830 | 27 | 98 | 4.8 | 11.3 | 0.00 | 0.00 | 0.00 | 75 | 1011.6 |
| 20260906013336 | 27 | 110 | 4.8 | 9.7 | 0.00 | 0.00 | 0.00 | 75 | 1011.5 |
| 20260906012822 | 27 | 84 | 3.2 | 8.0 | 0.00 | 0.00 | 0.00 | 75 | 1011.4 |
| 20260906012326 | 27 | 124 | 4.8 | 12.9 | 0.00 | 0.00 | 0.00 | 75 | 1011.3 |
| 20260906011829 | 27 | 97 | 6.4 | 14.5 | 0.00 | 0.00 | 0.00 | 75 | 1011.3 |
| 20260906011337 | 27 | 116 | 9.7 | 17.7 | 0.00 | 0.00 | 0.00 | 75 | 1011.2 |
| 20260906010850 | 27 | 111 | 8.0 | 17.7 | 0.00 | 0.00 | 0.00 | 75 | 1011.2 |
| 20260906010335 | 27 | 111 | 6.4 | 16.1 | 0.00 | 0.00 | 0.00 | 74 | 1011.3 |
| 20260906005845 | 27 | 109 | 8.0 | 16.1 | 0.00 | 0.00 | 0.00 | 74 | 1011.3 |
| 20260906005328 | 27 | 111 | 6.4 | 17.7 | 0.00 | 0.00 | 0.00 | 74 | 1011.5 |
| 20260906004835 | 28 | 60 | 11.3 | 16.1 | 0.00 | 0.00 | 0.00 | 74 | 1011.5 |
| 20260906004321 | 28 | 86 | 8.0 | 12.9 | 0.00 | 0.00 | 0.00 | 74 | 1011.6 |
| 20260906003826 | 28 | 120 | 6.4 | 12.9 | 0.00 | 0.00 | 0.00 | 74 | 1011.6 |
| 20260906003331 | 28 | 116 | 4.8 | 11.3 | 0.00 | 0.00 | 0.00 | 74 | 1011.6 |
| 20260906002907 | 28 | 129 | 4.8 | 16.1 | 0.00 | 0.00 | 0.00 | 74 | 1011.6 |
| 20260906002329 | 28 | 121 | 6.4 | 16.1 | 0.00 | 0.00 | 0.00 | 73 | 1011.6 |
| 20260906001835 | 28 | 110 | 8.0 | 14.5 | 0.00 | 0.00 | 0.00 | 73 | 1011.7 |
| 20260906001322 | 28 | 124 | 6.4 | 12.9 | 0.00 | 0.00 | 0.00 | 73 | 1011.8 |
| 20260906000828 | 28 | 105 | 6.4 | 11.3 | 0.00 | 0.00 | 0.00 | 73 | 1011.8 |
| 20260906000333 | 28 | 113 | 4.8 | 12.9 | 0.00 | 0.00 | 0.00 | 73 | 1011.8 |
| 20260905235819 | 28 | 80 | 4.8 | 12.9 | 0.00 | 0.00 | 0.00 | 72 | 1011.7 |
| 20260905235322 | 28 | 118 | 4.8 | 17.7 | 0.00 | 0.00 | 0.00 | 72 | 1011.7 |
| 20260905234829 | 28 | 83 | 8.0 | 16.1 | 0.00 | 0.00 | 0.00 | 72 | 1011.7 |
| 20260905234342 | 28 | 121 | 4.8 | 14.5 | 0.00 | 0.00 | 0.00 | 72 | 1011.7 |
| 20260905233845 | 28 | 81 | 8.0 | 16.1 | 0.00 | 0.00 | 0.00 | 72 | 1011.6 |
| 20260905233356 | 28 | 91 | 6.4 | 16.1 | 0.00 | 0.00 | 0.00 | 71 | 1011.6 |
| 20260905232843 | 28 | 74 | 8.0 | 16.1 | 0.00 | 0.00 | 0.00 | 71 | 1011.5 |
| 20260905232327 | 28 | 78 | 3.2 | 16.1 | 0.00 | 0.00 | 0.00 | 71 | 1011.4 |
| 20260905231835 | 28 | 90 | 9.7 | 19.3 | 0.00 | 0.00 | 0.00 | 70 | 1011.4 |
| 20260905231321 | 28 | 94 | 9.7 | 19.3 | 0.00 | 0.00 | 0.00 | 70 | 1011.3 |
| 20260905230830 | 28 | 84 | 9.7 | 20.9 | 0.00 | 0.00 | 0.00 | 70 | 1011.3 |
| 20260905230357 | 29 | 74 | 9.7 | 20.9 | 0.00 | 0.00 | 0.00 | 69 | 1011.4 |
| 20260905225844 | 29 | 73 | 9.7 | 19.3 | 0.00 | 0.00 | 0.00 | 69 | 1011.4 |
| 20260905225354 | 29 | 54 | 9.7 | 14.5 | 0.00 | 0.00 | 0.00 | 69 | 1011.4 |
| 20260905224821 | 30 | 78 | 3.2 | 19.3 | 0.00 | 0.00 | 0.00 | 69 | 1011.3 |
| 20260905224329 | 30 | 94 | 8.0 | 20.9 | 0.00 | 0.00 | 0.00 | 69 | 1011.4 |
| 20260905223830 | 30 | 73 | 9.7 | 20.9 | 0.00 | 0.00 | 0.00 | 69 | 1011.3 |
| 20260905223317 | 30 | 79 | 9.7 | 19.3 | 0.00 | 0.00 | 0.00 | 69 | 1011.3 |
| 20260905222846 | 30 | 92 | 9.7 | 17.7 | 0.00 | 0.00 | 0.00 | 69 | 1011.3 |
| 20260905222334 | 31 | 82 | 9.7 | 19.3 | 0.00 | 0.00 | 0.00 | 69 | 1011.3 |
| 20260905221845 | 31 | 32 | 9.7 | 19.3 | 0.00 | 0.00 | 0.00 | 69 | 1011.3 |
| 20260905220837 | 31 | 81 | 4.8 | 12.9 | 0.00 | 0.00 | 0.00 | 70 | 1011.3 |
| 20260905220346 | 31 | 55 | 4.8 | 8.0 | 0.00 | 0.00 | 0.00 | 70 | 1011.4 |
| 20260905215831 | 31 | 311 | 0.0 | 0.0 | 0.00 | 0.00 | 0.00 | 70 | 1011.2 |
| 20260905215317 | 31 | 311 | 0.0 | 0.0 | 0.00 | 0.00 | 0.00 | 70 | 1011.1 |
| 20260905214826 | 32 | 311 | 0.0 | 8.0 | 0.00 | 0.00 | 0.00 | 70 | 1011.1 |
| 20260905214333 | 32 | 311 | 3.2 | 14.5 | 0.00 | 0.00 | 0.00 | 70 | 1011.0 |
| 20260905213818 | 32 | 326 | 4.8 | 14.5 | 0.00 | 0.00 | 0.00 | 71 | 1011.1 |
| 20260905213327 | 32 | 300 | 4.8 | 6.4 | 0.00 | 0.00 | 0.00 | 71 | 1011.2 |
| 20260905212831 | 32 | 253 | 0.0 | 4.8 | 0.00 | 0.00 | 0.00 | 71 | 1011.2 |
| 20260905212317 | 32 | 253 | 1.6 | 6.4 | 0.00 | 0.00 | 0.00 | 71 | 1011.3 |
| 20260905211821 | 32 | 253 | 1.6 | 9.7 | 0.00 | 0.00 | 0.00 | 71 | 1011.5 |
| 20260905211352 | 32 | 270 | 1.6 | 9.7 | 0.00 | 0.00 | 0.00 | 71 | 1011.5 |
| 20260905210819 | 32 | 294 | 1.6 | 11.3 | 0.00 | 0.00 | 0.00 | 72 | 1011.5 |
| 20260905210324 | 32 | 249 | 3.2 | 16.1 | 0.00 | 0.00 | 0.00 | 72 | 1011.5 |
| 20260905205829 | 32 | 234 | 9.7 | 20.9 | 0.00 | 0.00 | 0.00 | 72 | 1011.5 |
| 20260905205328 | 32 | 244 | 6.4 | 20.9 | 0.00 | 0.00 | 0.00 | 72 | 1011.4 |
| 20260905204841 | 32 | 211 | 4.8 | 16.1 | 0.00 | 0.00 | 0.00 | 72 | 1011.6 |
| 20260905204327 | 32 | 255 | 9.7 | 19.3 | 0.00 | 0.00 | 0.00 | 72 | 1011.6 |
| 20260905203832 | 32 | 273 | 8.0 | 19.3 | 0.00 | 0.00 | 0.00 | 72 | 1011.7 |
| 20260905203320 | 32 | 274 | 6.4 | 19.3 | 0.00 | 0.00 | 0.00 | 73 | 1011.7 |
| 20260905202846 | 32 | 229 | 11.3 | 19.3 | 0.00 | 0.00 | 0.00 | 73 | 1011.8 |
| 20260905202356 | 32 | 231 | 8.0 | 16.1 | 0.00 | 0.00 | 0.00 | 73 | 1011.8 |
| 20260905201841 | 32 | 223 | 9.7 | 17.7 | 0.00 | 0.00 | 0.00 | 73 | 1011.8 |
| 20260905201329 | 32 | 205 | 6.4 | 17.7 | 0.00 | 0.00 | 0.00 | 73 | 1011.8 |
| 20260905200827 | 32 | 236 | 9.7 | 17.7 | 0.00 | 0.00 | 0.00 | 74 | 1011.8 |
| 20260905200335 | 32 | 227 | 6.4 | 14.5 | 0.00 | 0.00 | 0.00 | 74 | 1011.8 |
| 20260905195824 | 32 | 312 | 3.2 | 8.0 | 0.00 | 0.00 | 0.00 | 74 | 1011.9 |
| 20260905195326 | 32 | 315 | 3.2 | 8.0 | 0.00 | 0.00 | 0.00 | 75 | 1011.9 |
| 20260905194829 | 32 | 308 | 1.6 | 4.8 | 0.00 | 0.00 | 0.00 | 75 | 1011.9 |
| 20260905194336 | 32 | 308 | 1.6 | 4.8 | 0.00 | 0.00 | 0.00 | 75 | 1011.9 |
| 20260905193846 | 33 | 308 | 3.2 | 6.4 | 0.00 | 0.00 | 0.00 | 76 | 1012.1 |
| 20260905193328 | 33 | 308 | 4.8 | 6.4 | 0.00 | 0.00 | 0.00 | 76 | 1012.1 |
| 20260905192831 | 33 | 71 | 4.8 | 12.9 | 0.00 | 0.00 | 0.00 | 76 | 1012.1 |
| 20260905192403 | 33 | 74 | 6.4 | 12.9 | 0.00 | 0.00 | 0.00 | 77 | 1012.1 |
| 20260905191819 | 33 | 167 | 3.2 | 16.1 | 0.00 | 0.00 | 0.00 | 78 | 1012.1 |
| 20260905191351 | 33 | 180 | 6.4 | 16.1 | 0.00 | 0.00 | 0.00 | 78 | 1012.2 |
| 20260905190831 | 33 | 135 | 4.8 | 9.7 | 0.00 | 0.00 | 0.00 | 79 | 1012.3 |
| 20260905190337 | 32 | 142 | 6.4 | 8.0 | 0.00 | 0.00 | 0.00 | 79 | 1012.4 |